Year,Month,Day,Hour,Minute,Value (Times are PST for temperature in C)
2017,06,20,00,00,15.80
2017,06,20,00,01,15.80
2017,06,20,00,02,15.80
2017,06,20,00,03,15.80
2017,06,20,00,04,15.80
2017,06,20,00,05,15.80
2017,06,20,00,06,15.80
2017,06,20,00,07,15.80
2017,06,20,00,08,15.80
2017,06,20,00,09,15.80
2017,06,20,00,10,15.80
2017,06,20,00,11,15.80
2017,06,20,00,12,15.80
2017,06,20,00,13,15.80
2017,06,20,00,14,15.80
2017,06,20,00,15,15.70
2017,06,20,00,16,15.70
2017,06,20,00,17,15.70
2017,06,20,00,18,15.70
2017,06,20,00,19,15.60
2017,06,20,00,20,15.60
2017,06,20,00,21,15.60
2017,06,20,00,22,15.60
2017,06,20,00,23,15.60
2017,06,20,00,24,15.60
2017,06,20,00,25,15.60
2017,06,20,00,26,15.60
2017,06,20,00,27,15.60
2017,06,20,00,28,15.60
2017,06,20,00,29,15.50
2017,06,20,00,30,15.50
2017,06,20,00,31,15.50
2017,06,20,00,32,15.50
2017,06,20,00,33,15.50
2017,06,20,00,34,15.50
2017,06,20,00,35,15.50
2017,06,20,00,36,15.50
2017,06,20,00,37,15.60
2017,06,20,00,38,15.60
2017,06,20,00,39,15.60
2017,06,20,00,40,15.60
2017,06,20,00,41,15.60
2017,06,20,00,42,15.60
2017,06,20,00,43,15.60
2017,06,20,00,44,15.60
2017,06,20,00,45,15.60
2017,06,20,00,46,15.60
2017,06,20,00,47,15.60
2017,06,20,00,48,15.60
2017,06,20,00,49,15.60
2017,06,20,00,50,15.60
2017,06,20,00,51,15.60
2017,06,20,00,52,15.60
2017,06,20,00,53,15.50
2017,06,20,00,54,15.50
2017,06,20,00,55,15.50
2017,06,20,00,56,15.50
2017,06,20,00,57,15.50
2017,06,20,00,58,15.50
2017,06,20,00,59,15.50
2017,06,20,01,00,15.40
2017,06,20,01,01,15.40
2017,06,20,01,02,15.40
2017,06,20,01,03,15.40
2017,06,20,01,04,15.40
2017,06,20,01,05,15.40
2017,06,20,01,06,15.40
2017,06,20,01,07,15.30
2017,06,20,01,08,15.30
2017,06,20,01,09,15.30
2017,06,20,01,10,15.30
2017,06,20,01,11,15.30
2017,06,20,01,12,15.30
2017,06,20,01,13,15.30
2017,06,20,01,14,15.30
2017,06,20,01,15,15.20
2017,06,20,01,16,15.20
2017,06,20,01,17,15.20
2017,06,20,01,18,15.20
2017,06,20,01,19,15.20
2017,06,20,01,20,15.20
2017,06,20,01,21,15.20
2017,06,20,01,22,15.20
2017,06,20,01,23,15.20
2017,06,20,01,24,15.20
2017,06,20,01,25,15.10
2017,06,20,01,26,15.10
2017,06,20,01,27,15.10
2017,06,20,01,28,15.10
2017,06,20,01,29,15.00
2017,06,20,01,30,15.00
2017,06,20,01,31,15.00
2017,06,20,01,32,15.00
2017,06,20,01,33,15.00
2017,06,20,01,34,15.00
2017,06,20,01,35,15.00
2017,06,20,01,36,15.00
2017,06,20,01,37,15.00
2017,06,20,01,38,15.00
2017,06,20,01,39,15.00
2017,06,20,01,40,15.00
2017,06,20,01,41,15.10
2017,06,20,01,42,15.10
2017,06,20,01,43,15.10
2017,06,20,01,44,15.10
2017,06,20,01,45,15.10
2017,06,20,01,46,15.10
2017,06,20,01,47,15.10
2017,06,20,01,48,15.20
2017,06,20,01,49,15.20
2017,06,20,01,50,15.20
2017,06,20,01,51,15.20
2017,06,20,01,52,15.20
2017,06,20,01,53,15.20
2017,06,20,01,54,15.20
2017,06,20,01,55,15.20
2017,06,20,01,56,15.20
2017,06,20,01,57,15.20
2017,06,20,01,58,15.20
2017,06,20,01,59,15.20
2017,06,20,02,00,15.30
2017,06,20,02,01,15.20
2017,06,20,02,02,15.30
2017,06,20,02,03,15.20
2017,06,20,02,04,15.20
2017,06,20,02,05,15.20
2017,06,20,02,06,15.20
2017,06,20,02,07,15.20
2017,06,20,02,08,15.20
2017,06,20,02,09,15.20
2017,06,20,02,10,15.20
2017,06,20,02,11,15.20
2017,06,20,02,12,15.20
2017,06,20,02,13,15.20
2017,06,20,02,14,15.20
2017,06,20,02,15,15.20
2017,06,20,02,16,15.20
2017,06,20,02,17,15.20
2017,06,20,02,18,15.20
2017,06,20,02,19,15.20
2017,06,20,02,20,15.20
2017,06,20,02,21,15.10
2017,06,20,02,22,15.10
2017,06,20,02,23,15.10
2017,06,20,02,24,15.10
2017,06,20,02,25,15.10
2017,06,20,02,26,15.10
2017,06,20,02,27,15.10
2017,06,20,02,28,15.10
2017,06,20,02,29,15.00
2017,06,20,02,30,15.00
2017,06,20,02,31,15.00
2017,06,20,02,32,15.00
2017,06,20,02,33,15.00
2017,06,20,02,34,15.00
2017,06,20,02,35,15.00
2017,06,20,02,36,15.00
2017,06,20,02,37,14.90
2017,06,20,02,38,14.90
2017,06,20,02,39,14.90
2017,06,20,02,40,14.90
2017,06,20,02,41,14.90
2017,06,20,02,42,14.90
2017,06,20,02,43,14.90
2017,06,20,02,44,14.90
2017,06,20,02,45,14.90
2017,06,20,02,46,14.90
2017,06,20,02,47,14.90
2017,06,20,02,48,14.90
2017,06,20,02,49,14.90
2017,06,20,02,50,14.90
2017,06,20,02,51,14.90
2017,06,20,02,52,14.90
2017,06,20,02,53,14.90
2017,06,20,02,54,14.90
2017,06,20,02,55,14.90
2017,06,20,02,56,14.90
2017,06,20,02,57,14.90
2017,06,20,02,58,14.90
2017,06,20,02,59,14.90
2017,06,20,03,00,14.90
2017,06,20,03,01,14.90
2017,06,20,03,02,14.90
2017,06,20,03,03,14.90
2017,06,20,03,04,14.90
2017,06,20,03,05,14.90
2017,06,20,03,06,14.90
2017,06,20,03,07,14.90
2017,06,20,03,08,14.90
2017,06,20,03,09,14.90
2017,06,20,03,10,14.90
2017,06,20,03,11,14.90
2017,06,20,03,12,14.90
2017,06,20,03,13,14.90
2017,06,20,03,14,14.90
2017,06,20,03,15,14.90
2017,06,20,03,16,14.90
2017,06,20,03,17,14.90
2017,06,20,03,18,14.90
2017,06,20,03,19,14.90
2017,06,20,03,20,14.90
2017,06,20,03,21,14.90
2017,06,20,03,22,14.90
2017,06,20,03,23,14.90
2017,06,20,03,24,14.90
2017,06,20,03,25,14.90
2017,06,20,03,26,14.90
2017,06,20,03,27,14.90
2017,06,20,03,28,14.90
2017,06,20,03,29,14.90
2017,06,20,03,30,14.90
2017,06,20,03,31,14.90
2017,06,20,03,32,14.90
2017,06,20,03,33,14.90
2017,06,20,03,34,14.90
2017,06,20,03,35,14.80
2017,06,20,03,36,14.80
2017,06,20,03,37,14.80
2017,06,20,03,38,14.80
2017,06,20,03,39,14.80
2017,06,20,03,40,14.80
2017,06,20,03,41,14.80
2017,06,20,03,42,14.80
2017,06,20,03,43,14.80
2017,06,20,03,44,14.80
2017,06,20,03,45,14.80
2017,06,20,03,46,14.80
2017,06,20,03,47,14.80
2017,06,20,03,48,14.80
2017,06,20,03,49,14.80
2017,06,20,03,50,14.80
2017,06,20,03,51,14.80
2017,06,20,03,52,14.80
2017,06,20,03,53,14.80
2017,06,20,03,54,14.80
2017,06,20,03,55,14.80
2017,06,20,03,56,14.80
2017,06,20,03,57,14.80
2017,06,20,03,58,14.80
2017,06,20,03,59,14.70
2017,06,20,04,00,14.70
2017,06,20,04,01,14.70
2017,06,20,04,02,14.70
2017,06,20,04,03,14.70
2017,06,20,04,04,14.70
2017,06,20,04,05,14.70
2017,06,20,04,06,14.70
2017,06,20,04,07,14.70
2017,06,20,04,08,14.70
2017,06,20,04,09,14.70
2017,06,20,04,10,14.70
2017,06,20,04,11,14.70
2017,06,20,04,12,14.70
2017,06,20,04,13,14.70
2017,06,20,04,14,14.70
2017,06,20,04,15,14.70
2017,06,20,04,16,14.80
2017,06,20,04,17,14.80
2017,06,20,04,18,14.80
2017,06,20,04,19,14.80
2017,06,20,04,20,14.80
2017,06,20,04,21,14.80
2017,06,20,04,22,14.80
2017,06,20,04,23,14.90
2017,06,20,04,24,14.90
2017,06,20,04,25,14.90
2017,06,20,04,26,14.90
2017,06,20,04,27,14.90
2017,06,20,04,28,14.90
2017,06,20,04,29,14.90
2017,06,20,04,30,14.90
2017,06,20,04,31,14.90
2017,06,20,04,32,14.90
2017,06,20,04,33,14.90
2017,06,20,04,34,14.90
2017,06,20,04,35,14.90
2017,06,20,04,36,14.90
2017,06,20,04,37,14.90
2017,06,20,04,38,14.90
2017,06,20,04,39,14.90
2017,06,20,04,40,14.90
2017,06,20,04,41,14.90
2017,06,20,04,42,14.90
2017,06,20,04,43,14.90
2017,06,20,04,44,14.90
2017,06,20,04,45,14.90
2017,06,20,04,46,14.90
2017,06,20,04,47,14.90
2017,06,20,04,48,14.90
2017,06,20,04,49,14.90
2017,06,20,04,50,14.90
2017,06,20,04,51,14.90
2017,06,20,04,52,14.90
2017,06,20,04,53,14.90
2017,06,20,04,54,14.90
2017,06,20,04,55,14.90
2017,06,20,04,56,14.90
2017,06,20,04,57,14.80
2017,06,20,04,58,14.90
2017,06,20,04,59,14.90
2017,06,20,05,00,14.80
2017,06,20,05,01,14.80
2017,06,20,05,02,14.80
2017,06,20,05,03,14.80
2017,06,20,05,04,14.80
2017,06,20,05,05,14.80
2017,06,20,05,06,14.70
2017,06,20,05,07,14.70
2017,06,20,05,08,14.70
2017,06,20,05,09,14.70
2017,06,20,05,10,14.70
2017,06,20,05,11,14.70
2017,06,20,05,12,14.60
2017,06,20,05,13,14.60
2017,06,20,05,14,14.60
2017,06,20,05,15,14.60
2017,06,20,05,16,14.60
2017,06,20,05,17,14.60
2017,06,20,05,18,14.60
2017,06,20,05,19,14.60
2017,06,20,05,20,14.60
2017,06,20,05,21,14.60
2017,06,20,05,22,14.60
2017,06,20,05,23,14.60
2017,06,20,05,24,14.60
2017,06,20,05,25,14.60
2017,06,20,05,26,14.60
2017,06,20,05,27,14.60
2017,06,20,05,28,14.60
2017,06,20,05,29,14.60
2017,06,20,05,30,14.60
2017,06,20,05,31,14.60
2017,06,20,05,32,14.60
2017,06,20,05,33,14.60
2017,06,20,05,34,14.50
2017,06,20,05,35,14.50
2017,06,20,05,36,14.50
2017,06,20,05,37,14.50
2017,06,20,05,38,14.50
2017,06,20,05,39,14.50
2017,06,20,05,40,14.50
2017,06,20,05,41,14.50
2017,06,20,05,42,14.50
2017,06,20,05,43,14.50
2017,06,20,05,44,14.50
2017,06,20,05,45,14.50
2017,06,20,05,46,14.50
2017,06,20,05,47,14.50
2017,06,20,05,48,14.50
2017,06,20,05,49,14.50
2017,06,20,05,50,14.50
2017,06,20,05,51,14.50
2017,06,20,05,52,14.50
2017,06,20,05,53,14.50
2017,06,20,05,54,14.50
2017,06,20,05,55,14.60
2017,06,20,05,56,14.60
2017,06,20,05,57,14.50
2017,06,20,05,58,14.50
2017,06,20,05,59,14.60
2017,06,20,06,00,14.60
2017,06,20,06,01,14.60
2017,06,20,06,02,14.60
2017,06,20,06,03,14.60
2017,06,20,06,04,14.60
2017,06,20,06,05,14.60
2017,06,20,06,06,14.60
2017,06,20,06,07,14.60
2017,06,20,06,08,14.60
2017,06,20,06,09,14.60
2017,06,20,06,10,14.60
2017,06,20,06,11,14.60
2017,06,20,06,12,14.60
2017,06,20,06,13,14.60
2017,06,20,06,14,14.70
2017,06,20,06,15,14.70
2017,06,20,06,16,14.70
2017,06,20,06,17,14.70
2017,06,20,06,18,14.70
2017,06,20,06,19,14.70
2017,06,20,06,20,14.80
2017,06,20,06,21,14.80
2017,06,20,06,22,14.80
2017,06,20,06,23,14.80
2017,06,20,06,24,14.80
2017,06,20,06,25,14.80
2017,06,20,06,26,14.80
2017,06,20,06,27,14.80
2017,06,20,06,28,14.90
2017,06,20,06,29,14.90
2017,06,20,06,30,14.90
2017,06,20,06,31,14.90
2017,06,20,06,32,14.90
2017,06,20,06,33,14.90
2017,06,20,06,34,14.90
2017,06,20,06,35,14.90
2017,06,20,06,36,14.90
2017,06,20,06,37,14.90
2017,06,20,06,38,14.90
2017,06,20,06,39,14.90
2017,06,20,06,40,14.90
2017,06,20,06,41,14.90
2017,06,20,06,42,14.90
2017,06,20,06,43,14.90
2017,06,20,06,44,14.90
2017,06,20,06,45,14.90
2017,06,20,06,46,15.00
2017,06,20,06,47,15.00
2017,06,20,06,48,15.00
2017,06,20,06,49,15.10
2017,06,20,06,50,15.10
2017,06,20,06,51,15.10
2017,06,20,06,52,15.20
2017,06,20,06,53,15.30
2017,06,20,06,54,15.30
2017,06,20,06,55,15.30
2017,06,20,06,56,15.40
2017,06,20,06,57,15.40
2017,06,20,06,58,15.50
2017,06,20,06,59,15.50
2017,06,20,07,00,15.60
2017,06,20,07,01,15.60
2017,06,20,07,02,15.60
2017,06,20,07,03,15.60
2017,06,20,07,04,15.60
2017,06,20,07,05,15.70
2017,06,20,07,06,15.70
2017,06,20,07,07,15.70
2017,06,20,07,08,15.70
2017,06,20,07,09,15.80
2017,06,20,07,10,15.80
2017,06,20,07,11,15.80
2017,06,20,07,12,15.80
2017,06,20,07,13,15.80
2017,06,20,07,14,15.80
2017,06,20,07,15,15.80
2017,06,20,07,16,15.80
2017,06,20,07,17,15.80
2017,06,20,07,18,15.80
2017,06,20,07,19,15.80
2017,06,20,07,20,15.80
2017,06,20,07,21,15.80
2017,06,20,07,22,15.80
2017,06,20,07,23,15.80
2017,06,20,07,24,15.80
2017,06,20,07,25,15.80
2017,06,20,07,26,15.90
2017,06,20,07,27,15.90
2017,06,20,07,28,15.90
2017,06,20,07,29,15.90
2017,06,20,07,30,16.00
2017,06,20,07,31,16.00
2017,06,20,07,32,16.10
2017,06,20,07,33,16.20
2017,06,20,07,34,16.30
2017,06,20,07,35,16.40
2017,06,20,07,36,16.50
2017,06,20,07,37,16.60
2017,06,20,07,38,16.70
2017,06,20,07,39,16.70
2017,06,20,07,40,16.70
2017,06,20,07,41,16.80
2017,06,20,07,42,16.80
2017,06,20,07,43,16.80
2017,06,20,07,44,16.80
2017,06,20,07,45,16.90
2017,06,20,07,46,17.00
2017,06,20,07,47,17.10
2017,06,20,07,48,17.20
2017,06,20,07,49,17.30
2017,06,20,07,50,17.40
2017,06,20,07,51,17.50
2017,06,20,07,52,17.60
2017,06,20,07,53,17.60
2017,06,20,07,54,17.60
2017,06,20,07,55,17.60
2017,06,20,07,56,17.70
2017,06,20,07,57,17.80
2017,06,20,07,58,17.90
2017,06,20,07,59,18.00
2017,06,20,08,00,18.10
2017,06,20,08,01,18.20
2017,06,20,08,02,18.30
2017,06,20,08,03,18.50
2017,06,20,08,04,18.60
2017,06,20,08,05,18.80
2017,06,20,08,06,18.90
2017,06,20,08,07,19.10
2017,06,20,08,08,19.20
2017,06,20,08,09,19.40
2017,06,20,08,10,19.60
2017,06,20,08,11,19.80
2017,06,20,08,12,20.00
2017,06,20,08,13,20.10
2017,06,20,08,14,20.10
2017,06,20,08,15,20.10
2017,06,20,08,16,20.20
2017,06,20,08,17,20.20
2017,06,20,08,18,20.30
2017,06,20,08,19,20.30
2017,06,20,08,20,20.40
2017,06,20,08,21,20.50
2017,06,20,08,22,20.60
2017,06,20,08,23,20.60
2017,06,20,08,24,20.60
2017,06,20,08,25,20.70
2017,06,20,08,26,20.70
2017,06,20,08,27,20.80
2017,06,20,08,28,20.80
2017,06,20,08,29,20.80
2017,06,20,08,30,20.80
2017,06,20,08,31,20.80
2017,06,20,08,32,20.80
2017,06,20,08,33,20.90
2017,06,20,08,34,20.90
2017,06,20,08,35,20.90
2017,06,20,08,36,20.90
2017,06,20,08,37,20.90
2017,06,20,08,38,20.90
2017,06,20,08,39,20.90
2017,06,20,08,40,20.90
2017,06,20,08,41,20.90
2017,06,20,08,42,21.00
2017,06,20,08,43,21.00
2017,06,20,08,44,21.10
2017,06,20,08,45,21.10
2017,06,20,08,46,21.20
2017,06,20,08,47,21.10
2017,06,20,08,48,21.10
2017,06,20,08,49,21.00
2017,06,20,08,50,21.00
2017,06,20,08,51,20.90
2017,06,20,08,52,20.90
2017,06,20,08,53,20.90
2017,06,20,08,54,20.90
2017,06,20,08,55,20.90
2017,06,20,08,56,20.80
2017,06,20,08,57,20.80
2017,06,20,08,58,20.80
2017,06,20,08,59,20.80
2017,06,20,09,00,20.90
2017,06,20,09,01,20.90
2017,06,20,09,02,20.80
2017,06,20,09,03,20.80
2017,06,20,09,04,20.80
2017,06,20,09,05,20.80
2017,06,20,09,06,20.80
2017,06,20,09,07,20.80
2017,06,20,09,08,20.80
2017,06,20,09,09,20.80
2017,06,20,09,10,20.90
2017,06,20,09,11,20.90
2017,06,20,09,12,21.00
2017,06,20,09,13,21.10
2017,06,20,09,14,21.10
2017,06,20,09,15,21.20
2017,06,20,09,16,21.10
2017,06,20,09,17,21.10
2017,06,20,09,18,21.00
2017,06,20,09,19,20.90
2017,06,20,09,20,20.80
2017,06,20,09,21,20.80
2017,06,20,09,22,20.70
2017,06,20,09,23,20.70
2017,06,20,09,24,20.70
2017,06,20,09,25,20.70
2017,06,20,09,26,20.70
2017,06,20,09,27,20.70
2017,06,20,09,28,20.70
2017,06,20,09,29,20.80
2017,06,20,09,30,20.80
2017,06,20,09,31,20.90
2017,06,20,09,32,21.00
2017,06,20,09,33,21.00
2017,06,20,09,34,21.10
2017,06,20,09,35,21.10
2017,06,20,09,36,21.10
2017,06,20,09,37,21.20
2017,06,20,09,38,21.10
2017,06,20,09,39,21.10
2017,06,20,09,40,21.10
2017,06,20,09,41,21.10
2017,06,20,09,42,21.10
2017,06,20,09,43,21.00
2017,06,20,09,44,21.10
2017,06,20,09,45,21.10
2017,06,20,09,46,21.10
2017,06,20,09,47,21.20
2017,06,20,09,48,21.10
2017,06,20,09,49,21.10
2017,06,20,09,50,21.10
2017,06,20,09,51,21.10
2017,06,20,09,52,21.10
2017,06,20,09,53,21.10
2017,06,20,09,54,21.10
2017,06,20,09,55,21.10
2017,06,20,09,56,21.00
2017,06,20,09,57,21.10
2017,06,20,09,58,21.10
2017,06,20,09,59,21.10
2017,06,20,10,00,21.10
2017,06,20,10,01,21.10
2017,06,20,10,02,21.00
2017,06,20,10,03,20.90
2017,06,20,10,04,20.90
2017,06,20,10,05,20.90
2017,06,20,10,06,20.90
2017,06,20,10,07,21.00
2017,06,20,10,08,21.00
2017,06,20,10,09,21.00
2017,06,20,10,10,20.90
2017,06,20,10,11,20.90
2017,06,20,10,12,20.80
2017,06,20,10,13,20.70
2017,06,20,10,14,20.70
2017,06,20,10,15,20.70
2017,06,20,10,16,20.80
2017,06,20,10,17,20.80
2017,06,20,10,18,20.90
2017,06,20,10,19,20.90
2017,06,20,10,20,20.90
2017,06,20,10,21,20.90
2017,06,20,10,22,20.90
2017,06,20,10,23,20.90
2017,06,20,10,24,20.90
2017,06,20,10,25,20.80
2017,06,20,10,26,20.80
2017,06,20,10,27,20.90
2017,06,20,10,28,21.00
2017,06,20,10,29,21.10
2017,06,20,10,30,21.30
2017,06,20,10,31,21.30
2017,06,20,10,32,21.30
2017,06,20,10,33,21.40
2017,06,20,10,34,21.40
2017,06,20,10,35,21.40
2017,06,20,10,36,21.40
2017,06,20,10,37,21.50
2017,06,20,10,38,21.60
2017,06,20,10,39,21.60
2017,06,20,10,40,21.70
2017,06,20,10,41,21.70
2017,06,20,10,42,21.70
2017,06,20,10,43,21.60
2017,06,20,10,44,21.60
2017,06,20,10,45,21.60
2017,06,20,10,46,21.60
2017,06,20,10,47,21.60
2017,06,20,10,48,21.60
2017,06,20,10,49,21.70
2017,06,20,10,50,21.80
2017,06,20,10,51,21.80
2017,06,20,10,52,21.80
2017,06,20,10,53,21.80
2017,06,20,10,54,21.90
2017,06,20,10,55,21.90
2017,06,20,10,56,22.00
2017,06,20,10,57,22.00
2017,06,20,10,58,22.10
2017,06,20,10,59,22.10
2017,06,20,11,00,22.10
2017,06,20,11,01,22.10
2017,06,20,11,02,22.10
2017,06,20,11,03,22.10
2017,06,20,11,04,22.10
2017,06,20,11,05,22.10
2017,06,20,11,06,22.10
2017,06,20,11,07,22.00
2017,06,20,11,08,22.00
2017,06,20,11,09,22.10
2017,06,20,11,10,22.10
2017,06,20,11,11,22.10
2017,06,20,11,12,22.10
2017,06,20,11,13,22.00
2017,06,20,11,14,22.00
2017,06,20,11,15,21.90
2017,06,20,11,16,22.00
2017,06,20,11,17,22.10
2017,06,20,11,18,22.00
2017,06,20,11,19,22.00
2017,06,20,11,20,22.00
2017,06,20,11,21,22.00
2017,06,20,11,22,22.10
2017,06,20,11,23,22.20
2017,06,20,11,24,22.20
2017,06,20,11,25,22.20
2017,06,20,11,26,22.20
2017,06,20,11,27,22.20
2017,06,20,11,28,22.20
2017,06,20,11,29,22.10
2017,06,20,11,30,22.10
2017,06,20,11,31,22.10
2017,06,20,11,32,22.00
2017,06,20,11,33,22.10
2017,06,20,11,34,22.10
2017,06,20,11,35,22.10
2017,06,20,11,36,22.10
2017,06,20,11,37,22.10
2017,06,20,11,38,22.10
2017,06,20,11,39,22.10
2017,06,20,11,40,22.10
2017,06,20,11,41,22.10
2017,06,20,11,42,22.20
2017,06,20,11,43,22.30
2017,06,20,11,44,22.40
2017,06,20,11,45,22.50
2017,06,20,11,46,22.60
2017,06,20,11,47,22.70
2017,06,20,11,48,22.70
2017,06,20,11,49,22.70
2017,06,20,11,50,22.60
2017,06,20,11,51,22.60
2017,06,20,11,52,22.50
2017,06,20,11,53,22.40
2017,06,20,11,54,22.30
2017,06,20,11,55,22.30
2017,06,20,11,56,22.30
2017,06,20,11,57,22.40
2017,06,20,11,58,22.40
2017,06,20,11,59,22.40
2017,06,20,12,00,22.40
2017,06,20,12,01,22.40
2017,06,20,12,02,22.40
2017,06,20,12,03,22.40
2017,06,20,12,04,22.40
2017,06,20,12,05,22.40
2017,06,20,12,06,22.50
2017,06,20,12,07,22.60
2017,06,20,12,08,22.60
2017,06,20,12,09,22.70
2017,06,20,12,10,22.70
2017,06,20,12,11,22.80
2017,06,20,12,12,22.80
2017,06,20,12,13,22.80
2017,06,20,12,14,22.80
2017,06,20,12,15,22.80
2017,06,20,12,16,22.80
2017,06,20,12,17,22.80
2017,06,20,12,18,22.80
2017,06,20,12,19,22.80
2017,06,20,12,20,22.80
2017,06,20,12,21,22.80
2017,06,20,12,22,22.80
2017,06,20,12,23,22.80
2017,06,20,12,24,22.80
2017,06,20,12,25,22.80
2017,06,20,12,26,22.80
2017,06,20,12,27,22.90
2017,06,20,12,28,22.90
2017,06,20,12,29,23.00
2017,06,20,12,30,23.10
2017,06,20,12,31,23.20
2017,06,20,12,32,23.30
2017,06,20,12,33,23.30
2017,06,20,12,34,23.30
2017,06,20,12,35,23.30
2017,06,20,12,36,23.20
2017,06,20,12,37,23.10
2017,06,20,12,38,23.10
2017,06,20,12,39,23.10
2017,06,20,12,40,23.10
2017,06,20,12,41,23.00
2017,06,20,12,42,23.00
2017,06,20,12,43,23.00
2017,06,20,12,44,23.10
2017,06,20,12,45,23.10
2017,06,20,12,46,23.10
2017,06,20,12,47,23.10
2017,06,20,12,48,23.20
2017,06,20,12,49,23.20
2017,06,20,12,50,23.30
2017,06,20,12,51,23.30
2017,06,20,12,52,23.30
2017,06,20,12,53,23.30
2017,06,20,12,54,23.20
2017,06,20,12,55,23.20
2017,06,20,12,56,23.20
2017,06,20,12,57,23.10
2017,06,20,12,58,23.10
2017,06,20,12,59,23.20
2017,06,20,13,00,23.20
2017,06,20,13,01,23.20
2017,06,20,13,02,23.30
2017,06,20,13,03,23.20
2017,06,20,13,04,23.20
2017,06,20,13,05,23.20
2017,06,20,13,06,23.20
2017,06,20,13,07,23.20
2017,06,20,13,08,23.20
2017,06,20,13,09,23.20
2017,06,20,13,10,23.00
2017,06,20,13,11,22.70
2017,06,20,13,12,22.40
2017,06,20,13,13,22.20
2017,06,20,13,14,22.00
2017,06,20,13,15,21.80
2017,06,20,13,16,21.60
2017,06,20,13,17,21.50
2017,06,20,13,18,21.40
2017,06,20,13,19,21.40
2017,06,20,13,20,21.40
2017,06,20,13,21,21.40
2017,06,20,13,22,21.40
2017,06,20,13,23,21.30
2017,06,20,13,24,21.30
2017,06,20,13,25,21.20
2017,06,20,13,26,21.30
2017,06,20,13,27,21.40
2017,06,20,13,28,21.50
2017,06,20,13,29,21.60
2017,06,20,13,30,21.70
2017,06,20,13,31,21.80
2017,06,20,13,32,21.90
2017,06,20,13,33,22.00
2017,06,20,13,34,22.10
2017,06,20,13,35,22.10
2017,06,20,13,36,22.10
2017,06,20,13,37,22.10
2017,06,20,13,38,22.10
2017,06,20,13,39,22.10
2017,06,20,13,40,22.20
2017,06,20,13,41,22.20
2017,06,20,13,42,22.20
2017,06,20,13,43,22.20
2017,06,20,13,44,22.20
2017,06,20,13,45,22.10
2017,06,20,13,46,22.00
2017,06,20,13,47,22.00
2017,06,20,13,48,21.90
2017,06,20,13,49,21.80
2017,06,20,13,50,21.80
2017,06,20,13,51,21.70
2017,06,20,13,52,21.70
2017,06,20,13,53,21.80
2017,06,20,13,54,21.80
2017,06,20,13,55,21.70
2017,06,20,13,56,21.70
2017,06,20,13,57,21.70
2017,06,20,13,58,21.70
2017,06,20,13,59,21.80
2017,06,20,14,00,21.80
2017,06,20,14,01,22.00
2017,06,20,14,02,22.10
2017,06,20,14,03,22.10
2017,06,20,14,04,22.20
2017,06,20,14,05,22.30
2017,06,20,14,06,22.30
2017,06,20,14,07,22.20
2017,06,20,14,08,22.10
2017,06,20,14,09,22.10
2017,06,20,14,10,22.10
2017,06,20,14,11,22.20
2017,06,20,14,12,22.20
2017,06,20,14,13,22.20
2017,06,20,14,14,22.20
2017,06,20,14,15,22.20
2017,06,20,14,16,22.20
2017,06,20,14,17,22.20
2017,06,20,14,18,22.30
2017,06,20,14,19,22.40
2017,06,20,14,20,22.40
2017,06,20,14,21,22.20
2017,06,20,14,22,22.10
2017,06,20,14,23,22.00
2017,06,20,14,24,22.00
2017,06,20,14,25,22.10
2017,06,20,14,26,22.20
2017,06,20,14,27,22.40
2017,06,20,14,28,22.50
2017,06,20,14,29,22.50
2017,06,20,14,30,22.40
2017,06,20,14,31,22.30
2017,06,20,14,32,22.30
2017,06,20,14,33,22.40
2017,06,20,14,34,22.40
2017,06,20,14,35,22.40
2017,06,20,14,36,22.30
2017,06,20,14,37,22.10
2017,06,20,14,38,22.00
2017,06,20,14,39,21.90
2017,06,20,14,40,21.90
2017,06,20,14,41,21.90
2017,06,20,14,42,21.90
2017,06,20,14,43,21.90
2017,06,20,14,44,21.80
2017,06,20,14,45,21.80
2017,06,20,14,46,21.80
2017,06,20,14,47,21.90
2017,06,20,14,48,22.00
2017,06,20,14,49,22.10
2017,06,20,14,50,22.20
2017,06,20,14,51,22.30
2017,06,20,14,52,22.50
2017,06,20,14,53,22.60
2017,06,20,14,54,22.70
2017,06,20,14,55,22.80
2017,06,20,14,56,22.80
2017,06,20,14,57,22.80
2017,06,20,14,58,22.80
2017,06,20,14,59,22.80
2017,06,20,15,00,22.70
2017,06,20,15,01,22.60
2017,06,20,15,02,22.60
2017,06,20,15,03,22.70
2017,06,20,15,04,22.80
2017,06,20,15,05,22.80
2017,06,20,15,06,22.80
2017,06,20,15,07,22.80
2017,06,20,15,08,22.80
2017,06,20,15,09,22.90
2017,06,20,15,10,22.90
2017,06,20,15,11,23.00
2017,06,20,15,12,23.00
2017,06,20,15,13,23.00
2017,06,20,15,14,22.90
2017,06,20,15,15,22.90
2017,06,20,15,16,22.80
2017,06,20,15,17,22.80
2017,06,20,15,18,22.90
2017,06,20,15,19,22.90
2017,06,20,15,20,22.90
2017,06,20,15,21,22.80
2017,06,20,15,22,22.90
2017,06,20,15,23,22.90
2017,06,20,15,24,22.90
2017,06,20,15,25,23.00
2017,06,20,15,26,23.10
2017,06,20,15,27,23.20
2017,06,20,15,28,23.20
2017,06,20,15,29,23.20
2017,06,20,15,30,23.10
2017,06,20,15,31,23.20
2017,06,20,15,32,23.20
2017,06,20,15,33,23.30
2017,06,20,15,34,23.30
2017,06,20,15,35,23.30
2017,06,20,15,36,23.30
2017,06,20,15,37,23.30
2017,06,20,15,38,23.30
2017,06,20,15,39,23.30
2017,06,20,15,40,23.40
2017,06,20,15,41,23.40
2017,06,20,15,42,23.50
2017,06,20,15,43,23.60
2017,06,20,15,44,23.60
2017,06,20,15,45,23.60
2017,06,20,15,46,23.50
2017,06,20,15,47,23.50
2017,06,20,15,48,23.50
2017,06,20,15,49,23.50
2017,06,20,15,50,23.50
2017,06,20,15,51,23.40
2017,06,20,15,52,23.50
2017,06,20,15,53,23.50
2017,06,20,15,54,23.60
2017,06,20,15,55,23.70
2017,06,20,15,56,23.80
2017,06,20,15,57,24.00
2017,06,20,15,58,24.20
2017,06,20,15,59,24.30
2017,06,20,16,00,24.50
2017,06,20,16,01,24.70
2017,06,20,16,02,24.80
2017,06,20,16,03,25.10
2017,06,20,16,04,25.20
2017,06,20,16,05,25.30
2017,06,20,16,06,25.30
2017,06,20,16,07,25.30
2017,06,20,16,08,25.20
2017,06,20,16,09,25.00
2017,06,20,16,10,24.80
2017,06,20,16,11,24.60
2017,06,20,16,12,24.50
2017,06,20,16,13,24.40
2017,06,20,16,14,24.40
2017,06,20,16,15,24.30
2017,06,20,16,16,24.20
2017,06,20,16,17,24.10
2017,06,20,16,18,24.00
2017,06,20,16,19,23.90
2017,06,20,16,20,23.80
2017,06,20,16,21,23.70
2017,06,20,16,22,23.60
2017,06,20,16,23,23.40
2017,06,20,16,24,23.30
2017,06,20,16,25,23.10
2017,06,20,16,26,23.10
2017,06,20,16,27,23.00
2017,06,20,16,28,22.90
2017,06,20,16,29,23.00
2017,06,20,16,30,23.10
2017,06,20,16,31,23.20
2017,06,20,16,32,23.20
2017,06,20,16,33,23.20
2017,06,20,16,34,23.30
2017,06,20,16,35,23.20
2017,06,20,16,36,23.20
2017,06,20,16,37,23.30
2017,06,20,16,38,23.30
2017,06,20,16,39,23.40
2017,06,20,16,40,23.50
2017,06,20,16,41,23.60
2017,06,20,16,42,23.60
2017,06,20,16,43,23.70
2017,06,20,16,44,23.70
2017,06,20,16,45,23.70
2017,06,20,16,46,23.70
2017,06,20,16,47,23.60
2017,06,20,16,48,23.60
2017,06,20,16,49,23.60
2017,06,20,16,50,23.60
2017,06,20,16,51,23.60
2017,06,20,16,52,23.60
2017,06,20,16,53,23.60
2017,06,20,16,54,23.40
2017,06,20,16,55,23.30
2017,06,20,16,56,23.30
2017,06,20,16,57,23.30
2017,06,20,16,58,23.30
2017,06,20,16,59,23.30
2017,06,20,17,00,23.30
2017,06,20,17,01,23.30
2017,06,20,17,02,23.50
2017,06,20,17,03,23.60
2017,06,20,17,04,23.70
2017,06,20,17,05,23.80
2017,06,20,17,06,23.90
2017,06,20,17,07,24.00
2017,06,20,17,08,24.00
2017,06,20,17,09,23.90
2017,06,20,17,10,23.80
2017,06,20,17,11,23.80
2017,06,20,17,12,23.80
2017,06,20,17,13,23.90
2017,06,20,17,14,24.00
2017,06,20,17,15,24.10
2017,06,20,17,16,24.10
2017,06,20,17,17,24.20
2017,06,20,17,18,24.20
2017,06,20,17,19,24.20